EW4538 Weather Reports


Display with metric or nautical units.
time (UTC)temp
F
wind
direction
speed
MPH
gust
MPH
rain 1hr
in
rain 24hr
in
rain mn
in
humidity
%
barometer
mb
20260507014805 61 30 2.0 6.0 0.00 0.35 0.35 79 1014.1
20260507014304 61 312 5.0 9.0 0.00 0.35 0.35 79 1014.0
20260507013305 61 316 3.0 10.0 0.00 0.35 0.35 78 1013.9
20260507011804 61 19 3.0 6.0 0.00 0.35 0.35 78 1013.4
20260507011305 61 347 5.0 6.0 0.00 0.35 0.35 78 1013.1
20260507010804 61 351 3.0 10.0 0.00 0.35 0.35 78 1013.2
20260507010304 61 354 4.0 9.0 0.00 0.35 0.35 78 1013.2
20260507004305 61 347 3.0 6.0 0.00 0.35 0.35 78 1013.3
20260507003804 61 346 3.0 10.0 0.00 0.35 0.35 78 1013.1
20260507003305 61 354 5.0 10.0 0.00 0.35 0.35 78 1012.7
20260507000805 61 343 5.0 10.0 0.00 0.35 0.35 78 1012.8
20260507000306 61 348 2.0 13.0 0.00 0.35 0.35 78 1012.7
20260506234304 61 328 4.0 10.0 0.00 0.35 0.35 77 1012.7
20260506233805 61 1 5.0 14.0 0.00 0.35 0.35 77 1013.0
20260506231805 61 338 5.0 10.0 0.00 0.35 0.35 77 1012.5
20260506231305 61 0 8.0 15.0 0.00 0.35 0.35 77 1012.6
20260506230804 61 350 4.0 10.0 0.00 0.35 0.35 78 1012.5
20260506230305 61 339 4.0 12.0 0.00 0.35 0.35 77 1012.7
20260506224304 61 338 5.0 14.0 0.00 0.35 0.35 78 1012.7
20260506223804 61 348 7.0 12.0 0.00 0.35 0.35 78 1012.6
20260506221805 61 334 5.0 10.0 0.00 0.35 0.35 78 1012.5
20260506221304 60 335 9.0 16.0 0.00 0.35 0.35 78 1012.3
20260506220804 60 318 7.0 15.0 0.00 0.35 0.35 78 1012.4
20260506220305 60 341 6.0 13.0 0.00 0.35 0.35 78 1012.3
20260506214805 61 341 5.0 10.0 0.00 0.35 0.35 77 1012.6
20260506214304 61 321 6.0 15.0 0.00 0.35 0.35 77 1012.4
20260506213804 61 352 6.0 16.0 0.00 0.35 0.35 77 1012.3
20260506211805 61 343 12.0 20.0 0.00 0.35 0.35 76 1012.2
20260506211304 62 342 12.0 16.0 0.00 0.35 0.35 76 1012.3
20260506210804 62 357 9.0 14.0 0.00 0.35 0.35 77 1012.2
20260506204805 62 327 12.0 16.0 0.00 0.35 0.35 76 1012.6
20260506204304 62 346 7.0 15.0 0.00 0.35 0.35 77 1012.6
20260506203805 62 319 6.0 15.0 0.00 0.35 0.35 77 1012.5
20260506203304 62 348 6.0 15.0 0.00 0.35 0.35 76 1012.6
20260506201805 63 336 10.0 16.0 0.00 0.35 0.35 76 1012.6
20260506200804 64 349 9.0 14.0 0.00 0.35 0.35 75 1012.4
20260506200304 64 322 9.0 16.0 0.00 0.35 0.35 74 1012.3
20260506194804 65 328 10.0 14.0 0.00 0.35 0.35 75 1012.2
20260506194305 66 350 8.0 16.0 0.00 0.35 0.35 75 1012.1
20260506193304 67 340 9.0 15.0 0.00 0.35 0.35 75 1012.0
20260506191805 67 331 7.0 15.0 0.00 0.35 0.35 75 1012.0
20260506191305 67 345 7.0 16.0 0.00 0.35 0.35 75 1012.0
20260506190804 67 334 8.0 15.0 0.00 0.35 0.35 75 1012.1
20260506190304 68 331 7.0 16.0 0.00 0.35 0.35 75 1012.0
20260506184304 74 305 6.0 13.0 0.00 0.35 0.35 72 1011.8
20260506183804 75 296 2.0 13.0 0.00 0.35 0.35 72 1011.7
20260506183305 76 343 2.0 6.0 0.00 0.35 0.35 72 1011.6
20260506181804 77 306 5.0 6.0 0.00 0.35 0.35 70 1011.6
20260506181305 76 6 2.0 3.0 0.00 0.35 0.35 71 1011.5
20260506180805 76 15 2.0 8.0 0.00 0.35 0.35 74 1011.6
20260506180304 75 319 6.0 13.0 0.00 0.35 0.35 75 1011.6
20260506174805 73 336 3.0 10.0 0.00 0.35 0.35 78 1011.3
20260506173804 70 327 3.0 8.0 0.00 0.35 0.35 83 1011.2
20260506173305 70 92 3.0 8.0 0.00 0.35 0.35 85 1011.2
20260506171805 67 43 3.0 6.0 0.01 0.35 0.35 86 1011.3
20260506171304 66 141 3.0 9.0 0.04 0.35 0.35 86 1011.5
20260506170304 64 39 3.0 12.0 0.35 0.35 0.35 86 1011.4
20260506164805 64 128 2.0 12.0 0.35 0.35 0.35 86 1011.6
20260506164304 63 103 6.0 14.0 0.35 0.35 0.35 86 1011.3
20260506163804 62 61 6.0 12.0 0.35 0.35 0.35 85 1011.5
20260506163304 61 10 6.0 13.0 0.35 0.35 0.35 85 1011.6
20260506161804 60 345 2.0 9.0 0.34 0.34 0.34 83 1012.5
20260506160805 61 4 7.0 21.0 0.13 0.13 0.13 81 1012.1
20260506160304 61 16 9.0 28.0 0.00 0.00 0.00 80 1012.5
20260506154804 62 3 13.0 30.0 0.00 0.00 0.00 79 1012.2
20260506153805 63 28 12.0 26.0 0.00 0.00 0.00 79 1011.4
20260506153305 64 357 14.0 25.0 0.00 0.00 0.00 79 1011.6
20260506151804 66 13 11.0 20.0 0.00 0.00 0.00 79 1011.6
20260506151305 66 350 10.0 17.0 0.00 0.00 0.00 80 1011.5
20260506150305 66 344 12.0 21.0 0.00 0.00 0.00 79 1011.6
20260506144804 70 352 11.0 24.0 0.00 0.00 0.00 76 1010.7
20260506144304 73 354 9.0 14.0 0.00 0.00 0.00 75 1010.4
20260506143804 76 21 9.0 17.0 0.00 0.00 0.00 78 1010.2
20260506143305 76 150 1.0 12.0 0.00 0.00 0.00 80 1010.0
20260506141804 75 142 6.0 13.0 0.00 0.00 0.00 81 1009.6
20260506141305 75 118 7.0 14.0 0.00 0.00 0.00 81 1009.5
20260506140804 75 141 8.0 14.0 0.00 0.00 0.00 82 1009.4
20260506140304 75 157 5.0 13.0 0.00 0.00 0.00 82 1009.5
20260506134805 74 139 5.0 9.0 0.00 0.00 0.00 83 1009.8
20260506134305 74 116 5.0 9.0 0.00 0.00 0.00 83 1009.5
20260506133805 74 124 6.0 10.0 0.00 0.00 0.00 83 1009.2
20260506133305 74 153 3.0 12.0 0.00 0.00 0.00 83 1009.3
20260506131805 74 142 6.0 13.0 0.00 0.00 0.00 83 1009.2
20260506131304 74 137 6.0 13.0 0.00 0.00 0.00 84 1009.3
20260506130804 74 153 7.0 12.0 0.00 0.00 0.00 84 1009.0
20260506130304 74 150 6.0 12.0 0.00 0.00 0.00 84 1008.8
20260506123805 73 145 7.0 12.0 0.00 0.00 0.00 84 1008.6
20260506123305 73 147 7.0 12.0 0.00 0.00 0.00 84 1008.6
20260506121804 73 147 7.0 10.0 0.00 0.00 0.00 84 1008.4
20260506121306 73 157 4.0 8.0 0.00 0.00 0.00 84 1008.6
20260506120805 73 161 5.0 8.0 0.00 0.00 0.00 84 1008.7
20260506120305 73 157 3.0 6.0 0.00 0.00 0.00 84 1008.7
20260506114805 73 159 3.0 5.0 0.00 0.00 0.00 84 1008.6
20260506114304 73 159 1.0 6.0 0.00 0.00 0.00 84 1008.6
20260506113305 73 172 1.0 6.0 0.00 0.00 0.00 84 1008.7
20260506111804 73 172 0.0 0.0 0.00 0.00 0.00 83 1008.8
20260506111305 73 172 0.0 0.0 0.00 0.00 0.00 84 1008.8
20260506110805 73 172 0.0 0.0 0.00 0.00 0.00 84 1008.8
20260506110305 73 172 0.0 0.0 0.00 0.00 0.00 83 1008.8
20260506104804 73 172 0.0 0.0 0.00 0.00 0.00 83 1008.7
20260506104305 73 172 0.0 0.0 0.00 0.00 0.00 83 1008.7
20260506103304 73 172 0.0 3.0 0.00 0.00 0.00 83 1008.6
20260506101805 73 172 2.0 8.0 0.00 0.00 0.00 83 1008.4
20260506101304 74 186 2.0 3.0 0.00 0.00 0.00 83 1008.4
20260506100804 74 186 2.0 6.0 0.00 0.00 0.00 83 1008.3
20260506100304 74 185 5.0 10.0 0.00 0.00 0.00 83 1008.3
20260506094805 74 153 1.0 5.0 0.00 0.00 0.00 82 1008.2
20260506094304 74 163 5.0 8.0 0.00 0.00 0.00 82 1008.0
20260506093804 74 151 5.0 12.0 0.00 0.00 0.00 82 1007.9
20260506091804 74 163 5.0 10.0 0.00 0.00 0.00 81 1007.7
20260506091305 74 158 3.0 6.0 0.00 0.00 0.00 81 1007.7
20260506090805 74 158 3.0 8.0 0.00 0.00 0.00 81 1007.6
20260506090304 74 157 5.0 12.0 0.00 0.00 0.00 81 1007.5
20260506084804 74 166 6.0 12.0 0.00 0.00 0.00 81 1007.3
20260506084305 74 164 4.0 12.0 0.00 0.00 0.00 81 1007.5
20260506083804 74 179 3.0 9.0 0.00 0.00 0.00 81 1007.5
20260506081804 75 160 5.0 10.0 0.00 0.00 0.00 80 1007.6
20260506081305 75 171 7.0 14.0 0.00 0.00 0.00 80 1007.6
20260506080805 75 180 5.0 13.0 0.00 0.00 0.00 80 1007.5
20260506080305 75 187 5.0 14.0 0.00 0.00 0.00 80 1007.6
20260506073304 75 170 6.0 17.0 0.00 0.00 0.00 80 1007.8
20260506071804 75 174 6.0 13.0 0.00 0.00 0.00 80 1007.9
20260506071304 75 157 9.0 14.0 0.00 0.00 0.00 80 1008.1
20260506070804 75 170 9.0 15.0 0.00 0.00 0.00 81 1008.1
20260506070305 75 165 6.0 18.0 0.00 0.00 0.00 81 1008.1
20260506061804 74 160 11.0 18.0 0.00 0.00 0.00 81 1007.8
20260506061304 74 177 9.0 15.0 0.00 0.00 0.00 81 1007.8
20260506060805 74 174 7.0 14.0 0.00 0.00 0.00 81 1007.9
20260506050805 75 165 7.0 17.0 0.00 0.00 0.00 81 1007.9
20260506050305 75 160 13.0 17.0 0.00 0.00 0.00 81 1007.8
20260506044804 75 166 12.0 21.0 0.00 0.00 0.00 81 1007.8
20260506043804 75 160 9.0 18.0 0.00 0.00 0.00 80 1007.8
20260506043305 75 165 10.0 16.0 0.00 0.00 0.00 80 1007.7
20260506041804 75 166 11.0 17.0 0.00 0.00 0.00 80 1007.7
20260506041304 75 157 10.0 15.0 0.00 0.00 0.00 80 1007.7
20260506040304 76 166 8.0 20.0 0.00 0.00 0.00 79 1007.7
20260506034805 76 160 11.0 17.0 0.00 0.00 0.00 79 1007.5
20260506034305 76 158 12.0 18.0 0.00 0.00 0.00 78 1007.3
20260506033804 76 157 10.0 15.0 0.00 0.00 0.00 78 1007.2
20260506033304 76 161 11.0 18.0 0.00 0.00 0.00 78 1007.1
20260506031304 77 161 12.0 17.0 0.00 0.00 0.00 77 1007.0
20260506030804 77 157 9.0 14.0 0.00 0.00 0.00 77 1007.0
20260506030304 77 156 10.0 15.0 0.00 0.00 0.00 76 1006.8
20260506024304 77 157 9.0 14.0 0.00 0.00 0.00 76 1006.6
20260506023804 77 154 9.0 15.0 0.00 0.00 0.00 75 1006.5
20260506023304 77 156 9.0 16.0 0.00 0.00 0.00 75 1006.3
20260506021804 77 158 9.0 13.0 0.00 0.00 0.00 75 1006.1
20260506021304 77 160 9.0 14.0 0.00 0.00 0.00 75 1006.1
20260506020304 78 154 7.0 13.0 0.00 0.00 0.00 74 1006.0